Weather Roundup
Issued by NWS Chicago, IL

Home | Current Version | Previous Version | Graphics & Text | Print | Product List | Glossary On
Versions: 1 2 3 4 5 6 7 8 9 10 11 12 13 14 15 16 17 18 19 20 21 22 23 24 25 26 27 28 29 30 31 32 33 34 35 36 37 38 39 40 41 42 43 44 45 46 47 48 49 50
000
NZUS59 KLOT 012100
HRRLOT

CHICAGO AREA WEATHER ROUNDUP
NATIONAL WEATHER SERVICE CHICAGO/ROMEOVILLE IL
300 PM CST SUN MAR 01 2015

NOTE: "FAIR" INDICATES FEW OR NO CLOUDS BELOW 12,000 FEET WITH NO
SIGNIFICANT WEATHER AND/OR OBSTRUCTIONS TO VISIBILITY.

* THESE STATIONS ARE NOT UNDER NWS QUALITY CONTROL. THEY ALSO MAY NOT
  REPORT WEATHER SUCH AS PRECIPITATION OR FOG.

ILZ005-006-012>014-019>023-012200-
NORTHEAST ILLINOIS

CITY           SKY/WX    TMP DP  RH WIND       PRES   REMARKS
OHARE          PTSUNNY   25  15  66 SW12      30.27F WCI  14
MIDWAY         PTSUNNY   27  18  69 SW12      30.29F WCI  17
AURORA         CLOUDY    24  16  71 W9        30.29F WCI  14
LANSING*       PTSUNNY   25  17  69 SW8       30.29F WCI  17
WAUKEGAN       MOSUNNY   25  15  66 SW12G17   30.25F WCI  14
DUPAGE AIRPORT MIX PCPN  24  16  71 SW14      30.27F WCI  12
WHEELING       MOSUNNY   27  15  61 W10       30.28F WCI  17
NORTHERLY IS     N/A     26  18  71 SW7         N/A  WCI  19
$$

WIZ051-052-058>065-066-070>072-012200-
SOUTHEAST WISCONSIN

CITY           SKY/WX    TMP DP  RH WIND       PRES   REMARKS
MILWAUKEE      MOSUNNY   27  13  55 SW14      30.23F WCI  16
KENOSHA*       SUNNY     25  14  63 W12       30.24F WCI  14
RACINE*        SUNNY     26  13  57 W12       30.25F WCI  16
WAUKESHA       MOSUNNY   25  12  58 SW12G17   30.23F WCI  14
$$

INZ001>003-010>013-019-020-012200-
NORTHWEST INDIANA

CITY           SKY/WX    TMP DP  RH WIND       PRES   REMARKS
GARY*          CLOUDY    28  16  59 SW8       30.30F WCI  20
MICHIGAN CITY* NOT AVBL
RENSSELAER*    NOT AVBL
$$

LMZ740>746-012200-
SOUTHERN LAKE MICHIGAN

STATION/POSITION TIME  SKY/WX   TEMP WIND        PRES    VSBY
                                AIR  DIR/SP/G
                 (UTC)          (F)  (DEG/KT/KT) (MB)    (MI)
HARRISON CRIB    2000            25  230/  4/  5   N/A
BURNHAM HARBOR   2100            27  250/  4/  9   N/A
CALUMET HARBOR   2000            26  200/  7/ 11 1024.7F
BURNS HARBOR     NOT AVBL
MICHIGAN CITY    2000            22  230/  5/  6   N/A
$$

ABBREVIATIONS USED IN REMARKS
   TC - TEMPERATURE IN CELSIUS
  WCI - WIND CHILL INDEX
   HX - HEAT INDEX
  VSB - VISIBILITY
$$


USA.gov is the U.S. government's official web portal to all federal, state and local government web resources and services.